| time (UTC) | temp F | wind direction | speed MPH | gust MPH | rain 1hr in | rain 24hr in | rain mn in | humidity % | barometer mb |
| 20260831232054 | 101 | 29 | 2.0 | 10.0 | 0.00 | 0.00 | 0.00 | 31 | 1013.6 |
| 20260831231610 | 101 | 103 | 2.0 | 11.0 | 0.00 | 0.00 | 0.00 | 31 | 1013.6 |
| 20260831231055 | 102 | 74 | 2.0 | 11.0 | 0.00 | 0.00 | 0.00 | 30 | 1013.6 |
| 20260831230555 | 102 | 223 | 3.0 | 11.0 | 0.00 | 0.00 | 0.00 | 30 | 1013.6 |
| 20260831230109 | 102 | 123 | 3.0 | 11.0 | 0.00 | 0.00 | 0.00 | 30 | 1013.7 |
| 20260831225555 | 102 | 182 | 3.0 | 7.0 | 0.00 | 0.00 | 0.00 | 30 | 1013.8 |
| 20260831225054 | 103 | 106 | 2.0 | 10.0 | 0.00 | 0.00 | 0.00 | 30 | 1013.8 |
| 20260831224606 | 103 | 159 | 2.0 | 10.0 | 0.00 | 0.00 | 0.00 | 30 | 1013.8 |
| 20260831224054 | 103 | 114 | 3.0 | 9.0 | 0.00 | 0.00 | 0.00 | 30 | 1013.8 |
| 20260831223555 | 103 | 98 | 3.0 | 9.0 | 0.00 | 0.00 | 0.00 | 30 | 1013.9 |
| 20260831223111 | 103 | 136 | 2.0 | 9.0 | 0.00 | 0.00 | 0.00 | 29 | 1013.8 |
| 20260831222555 | 104 | 147 | 2.0 | 9.0 | 0.00 | 0.00 | 0.00 | 29 | 1013.8 |
| 20260831222055 | 104 | 82 | 3.0 | 9.0 | 0.00 | 0.00 | 0.00 | 29 | 1013.8 |
| 20260831221609 | 104 | 193 | 3.0 | 9.0 | 0.00 | 0.00 | 0.00 | 29 | 1013.9 |
| 20260831221055 | 104 | 234 | 2.0 | 9.0 | 0.00 | 0.00 | 0.00 | 29 | 1014.0 |
| 20260831220555 | 105 | 63 | 2.0 | 7.0 | 0.00 | 0.00 | 0.00 | 29 | 1014.0 |
| 20260831220126 | 105 | 140 | 2.0 | 6.0 | 0.00 | 0.00 | 0.00 | 29 | 1014.0 |
| 20260831215558 | 105 | 136 | 2.0 | 8.0 | 0.00 | 0.00 | 0.00 | 29 | 1014.2 |
| 20260831215055 | 105 | 184 | 2.0 | 8.0 | 0.00 | 0.00 | 0.00 | 28 | 1014.2 |
| 20260831214606 | 105 | 187 | 3.0 | 9.0 | 0.00 | 0.00 | 0.00 | 28 | 1014.2 |
| 20260831214054 | 104 | 0 | 2.0 | 9.0 | 0.00 | 0.00 | 0.00 | 31 | 1014.2 |
| 20260831213555 | 104 | 107 | 3.0 | 8.0 | 0.00 | 0.00 | 0.00 | 30 | 1014.2 |
| 20260831213113 | 103 | 187 | 3.0 | 8.0 | 0.00 | 0.00 | 0.00 | 29 | 1014.3 |
| 20260831212555 | 103 | 5 | 2.0 | 8.0 | 0.00 | 0.00 | 0.00 | 30 | 1014.4 |
| 20260831212054 | 104 | 214 | 2.0 | 7.0 | 0.00 | 0.00 | 0.00 | 29 | 1014.5 |
| 20260831211604 | 105 | 164 | 2.0 | 7.0 | 0.00 | 0.00 | 0.00 | 28 | 1014.5 |
| 20260831211054 | 105 | 150 | 2.0 | 8.0 | 0.00 | 0.00 | 0.00 | 30 | 1014.6 |
| 20260831210554 | 105 | 69 | 2.0 | 8.0 | 0.00 | 0.00 | 0.00 | 30 | 1014.6 |
| 20260831210100 | 105 | 123 | 2.0 | 10.0 | 0.00 | 0.00 | 0.00 | 29 | 1014.7 |
| 20260831205555 | 106 | 163 | 3.0 | 10.0 | 0.00 | 0.00 | 0.00 | 28 | 1014.6 |
| 20260831205055 | 105 | 217 | 1.0 | 7.0 | 0.00 | 0.00 | 0.00 | 29 | 1014.6 |
| 20260831204605 | 105 | 88 | 1.0 | 7.0 | 0.00 | 0.00 | 0.00 | 29 | 1014.9 |
| 20260831204055 | 106 | 111 | 2.0 | 11.0 | 0.00 | 0.00 | 0.00 | 28 | 1014.9 |
| 20260831203556 | 106 | 102 | 2.0 | 14.0 | 0.00 | 0.00 | 0.00 | 28 | 1015.0 |
| 20260831203134 | 106 | 201 | 4.0 | 14.0 | 0.00 | 0.00 | 0.00 | 26 | 1015.0 |
| 20260831202556 | 106 | 159 | 2.0 | 7.0 | 0.00 | 0.00 | 0.00 | 27 | 1015.1 |
| 20260831202057 | 106 | 225 | 2.0 | 9.0 | 0.00 | 0.00 | 0.00 | 27 | 1015.1 |
| 20260831201606 | 106 | 311 | 3.0 | 9.0 | 0.00 | 0.00 | 0.00 | 27 | 1015.2 |
| 20260831201054 | 106 | 0 | 3.0 | 9.0 | 0.00 | 0.00 | 0.00 | 27 | 1015.2 |
| 20260831200601 | 105 | 183 | 2.0 | 9.0 | 0.00 | 0.00 | 0.00 | 28 | 1015.2 |
| 20260831200107 | 105 | 259 | 1.0 | 8.0 | 0.00 | 0.00 | 0.00 | 30 | 1015.3 |
| 20260831195559 | 104 | 101 | 2.0 | 9.0 | 0.00 | 0.00 | 0.00 | 30 | 1015.4 |
| 20260831195055 | 104 | 101 | 2.0 | 9.0 | 0.00 | 0.00 | 0.00 | 30 | 1015.4 |
| 20260831194614 | 104 | 92 | 2.0 | 9.0 | 0.00 | 0.00 | 0.00 | 30 | 1015.6 |
| 20260831194057 | 104 | 67 | 3.0 | 11.0 | 0.00 | 0.00 | 0.00 | 31 | 1015.5 |
| 20260831193555 | 103 | 205 | 3.0 | 12.0 | 0.00 | 0.00 | 0.00 | 31 | 1015.6 |
| 20260831193102 | 102 | 193 | 3.0 | 12.0 | 0.00 | 0.00 | 0.00 | 32 | 1015.7 |
| 20260831192554 | 101 | 144 | 2.0 | 12.0 | 0.00 | 0.00 | 0.00 | 32 | 1015.8 |
| 20260831192055 | 100 | 201 | 3.0 | 12.0 | 0.00 | 0.00 | 0.00 | 32 | 1015.8 |
| 20260831191608 | 101 | 118 | 2.0 | 6.0 | 0.00 | 0.00 | 0.00 | 33 | 1015.8 |
| 20260831191055 | 101 | 70 | 1.0 | 9.0 | 0.00 | 0.00 | 0.00 | 34 | 1015.8 |
| 20260831190555 | 103 | 76 | 3.0 | 9.0 | 0.00 | 0.00 | 0.00 | 34 | 1015.9 |
| 20260831190139 | 103 | 154 | 1.0 | 8.0 | 0.00 | 0.00 | 0.00 | 33 | 1016.0 |
| 20260831185556 | 104 | 127 | 2.0 | 8.0 | 0.00 | 0.00 | 0.00 | 33 | 1016.0 |
| 20260831185101 | 104 | 136 | 2.0 | 11.0 | 0.00 | 0.00 | 0.00 | 33 | 1015.9 |
| 20260831184610 | 104 | 178 | 3.0 | 11.0 | 0.00 | 0.00 | 0.00 | 33 | 1016.1 |
| 20260831184056 | 104 | 205 | 3.0 | 10.0 | 0.00 | 0.00 | 0.00 | 33 | 1016.1 |
| 20260831183558 | 103 | 88 | 2.0 | 10.0 | 0.00 | 0.00 | 0.00 | 33 | 1016.1 |
| 20260831183105 | 104 | 121 | 3.0 | 10.0 | 0.00 | 0.00 | 0.00 | 33 | 1016.2 |
| 20260831182559 | 103 | 238 | 1.0 | 9.0 | 0.00 | 0.00 | 0.00 | 32 | 1016.3 |
| 20260831182058 | 103 | 161 | 2.0 | 11.0 | 0.00 | 0.00 | 0.00 | 33 | 1016.5 |
| 20260831181606 | 103 | 178 | 2.0 | 11.0 | 0.00 | 0.00 | 0.00 | 33 | 1016.5 |
| 20260831181055 | 103 | 92 | 2.0 | 7.0 | 0.00 | 0.00 | 0.00 | 33 | 1016.5 |
| 20260831180555 | 103 | 141 | 2.0 | 8.0 | 0.00 | 0.00 | 0.00 | 34 | 1016.7 |
| 20260831180120 | 102 | 103 | 2.0 | 9.0 | 0.00 | 0.00 | 0.00 | 35 | 1016.8 |
| 20260831175558 | 102 | 160 | 2.0 | 9.0 | 0.00 | 0.00 | 0.00 | 35 | 1016.8 |
| 20260831175055 | 102 | 171 | 3.0 | 10.0 | 0.00 | 0.00 | 0.00 | 34 | 1016.9 |
| 20260831174602 | 102 | 91 | 4.0 | 10.0 | 0.00 | 0.00 | 0.00 | 34 | 1017.0 |
| 20260831174055 | 101 | 196 | 2.0 | 11.0 | 0.00 | 0.00 | 0.00 | 35 | 1017.0 |
| 20260831173557 | 101 | 188 | 3.0 | 11.0 | 0.00 | 0.00 | 0.00 | 35 | 1017.1 |
| 20260831173115 | 101 | 223 | 2.0 | 12.0 | 0.00 | 0.00 | 0.00 | 35 | 1017.2 |
| 20260831172558 | 101 | 196 | 3.0 | 12.0 | 0.00 | 0.00 | 0.00 | 34 | 1017.2 |
| 20260831172055 | 101 | 166 | 3.0 | 11.0 | 0.00 | 0.00 | 0.00 | 35 | 1017.2 |
| 20260831171607 | 101 | 171 | 2.0 | 9.0 | 0.00 | 0.00 | 0.00 | 37 | 1017.3 |
| 20260831171055 | 100 | 202 | 1.0 | 12.0 | 0.00 | 0.00 | 0.00 | 36 | 1017.4 |
| 20260831170555 | 100 | 171 | 4.0 | 12.0 | 0.00 | 0.00 | 0.00 | 36 | 1017.4 |
| 20260831165554 | 100 | 215 | 2.0 | 11.0 | 0.00 | 0.00 | 0.00 | 36 | 1017.4 |
| 20260831165054 | 99 | 234 | 4.0 | 13.0 | 0.00 | 0.00 | 0.00 | 37 | 1017.4 |
| 20260831164604 | 100 | 286 | 2.0 | 13.0 | 0.00 | 0.00 | 0.00 | 37 | 1017.5 |
| 20260831164056 | 99 | 211 | 2.0 | 11.0 | 0.00 | 0.00 | 0.00 | 36 | 1017.4 |
| 20260831163555 | 99 | 217 | 3.0 | 12.0 | 0.00 | 0.00 | 0.00 | 38 | 1017.5 |
| 20260831163102 | 99 | 188 | 3.0 | 14.0 | 0.00 | 0.00 | 0.00 | 38 | 1017.4 |
| 20260831162557 | 98 | 234 | 5.0 | 14.0 | 0.00 | 0.00 | 0.00 | 38 | 1017.5 |
| 20260831162054 | 98 | 169 | 2.0 | 11.0 | 0.00 | 0.00 | 0.00 | 39 | 1017.5 |
| 20260831161608 | 98 | 207 | 3.0 | 12.0 | 0.00 | 0.00 | 0.00 | 38 | 1017.7 |
| 20260831161055 | 97 | 196 | 2.0 | 12.0 | 0.00 | 0.00 | 0.00 | 39 | 1017.6 |
| 20260831160555 | 97 | 201 | 5.0 | 12.0 | 0.00 | 0.00 | 0.00 | 39 | 1017.6 |
| 20260831160128 | 97 | 0 | 4.0 | 12.0 | 0.00 | 0.00 | 0.00 | 40 | 1017.5 |
| 20260831155554 | 96 | 185 | 3.0 | 11.0 | 0.00 | 0.00 | 0.00 | 40 | 1017.4 |
| 20260831155056 | 96 | 180 | 3.0 | 11.0 | 0.00 | 0.00 | 0.00 | 39 | 1017.6 |
| 20260831154634 | 95 | 210 | 3.0 | 10.0 | 0.00 | 0.00 | 0.00 | 40 | 1017.6 |
| 20260831154058 | 95 | 221 | 3.0 | 14.0 | 0.00 | 0.00 | 0.00 | 40 | 1017.5 |
| 20260831153555 | 95 | 261 | 4.0 | 14.0 | 0.00 | 0.00 | 0.00 | 40 | 1017.5 |
| 20260831153133 | 95 | 225 | 3.0 | 12.0 | 0.00 | 0.00 | 0.00 | 40 | 1017.5 |
| 20260831152556 | 94 | 0 | 4.0 | 12.0 | 0.00 | 0.00 | 0.00 | 42 | 1017.4 |
| 20260831152056 | 94 | 207 | 3.0 | 10.0 | 0.00 | 0.00 | 0.00 | 41 | 1017.4 |
| 20260831151611 | 94 | 255 | 2.0 | 10.0 | 0.00 | 0.00 | 0.00 | 46 | 1017.4 |
| 20260831151056 | 93 | 191 | 4.0 | 10.0 | 0.00 | 0.00 | 0.00 | 45 | 1017.5 |
| 20260831150555 | 93 | 230 | 3.0 | 10.0 | 0.00 | 0.00 | 0.00 | 46 | 1017.5 |
| 20260831150107 | 92 | 171 | 1.0 | 11.0 | 0.00 | 0.00 | 0.00 | 46 | 1017.4 |
| 20260831145555 | 92 | 207 | 2.0 | 11.0 | 0.00 | 0.00 | 0.00 | 48 | 1017.5 |
| 20260831145055 | 91 | 173 | 3.0 | 9.0 | 0.00 | 0.00 | 0.00 | 48 | 1017.4 |
| 20260831144608 | 91 | 182 | 4.0 | 9.0 | 0.00 | 0.00 | 0.00 | 50 | 1017.4 |
| 20260831144055 | 91 | 186 | 2.0 | 9.0 | 0.00 | 0.00 | 0.00 | 52 | 1017.4 |
| 20260831143555 | 90 | 200 | 2.0 | 10.0 | 0.00 | 0.00 | 0.00 | 52 | 1017.4 |
| 20260831143115 | 90 | 216 | 3.0 | 10.0 | 0.00 | 0.00 | 0.00 | 53 | 1017.5 |
| 20260831142556 | 89 | 0 | 2.0 | 7.0 | 0.00 | 0.00 | 0.00 | 55 | 1017.5 |
| 20260831142054 | 89 | 209 | 1.0 | 9.0 | 0.00 | 0.00 | 0.00 | 56 | 1017.4 |
| 20260831141601 | 88 | 0 | 3.0 | 10.0 | 0.00 | 0.00 | 0.00 | 56 | 1017.4 |
| 20260831141054 | 88 | 247 | 2.0 | 10.0 | 0.00 | 0.00 | 0.00 | 58 | 1017.3 |
| 20260831140554 | 87 | 206 | 3.0 | 10.0 | 0.00 | 0.00 | 0.00 | 59 | 1017.4 |
| 20260831140106 | 86 | 208 | 3.0 | 9.0 | 0.00 | 0.00 | 0.00 | 60 | 1017.3 |
| 20260831135556 | 86 | 180 | 1.0 | 5.0 | 0.00 | 0.00 | 0.00 | 62 | 1017.3 |
| 20260831135057 | 85 | 184 | 1.0 | 4.0 | 0.00 | 0.00 | 0.00 | 63 | 1017.1 |
| 20260831134611 | 85 | 0 | 1.0 | 5.0 | 0.00 | 0.00 | 0.00 | 64 | 1017.1 |
| 20260831134056 | 84 | 188 | 2.0 | 6.0 | 0.00 | 0.00 | 0.00 | 64 | 1017.0 |
| 20260831133600 | 84 | 198 | 1.0 | 6.0 | 0.00 | 0.00 | 0.00 | 65 | 1017.1 |
| 20260831133106 | 83 | 145 | 2.0 | 5.0 | 0.00 | 0.00 | 0.00 | 66 | 1017.0 |
| 20260831132555 | 82 | 188 | 1.0 | 3.0 | 0.00 | 0.00 | 0.00 | 68 | 1016.9 |
| 20260831132055 | 82 | 188 | 0.0 | 3.0 | 0.00 | 0.00 | 0.00 | 68 | 1016.8 |
| 20260831131605 | 81 | 185 | 0.0 | 3.0 | 0.00 | 0.00 | 0.00 | 69 | 1016.8 |
| 20260831131054 | 81 | 0 | 0.0 | 2.0 | 0.00 | 0.00 | 0.00 | 70 | 1016.7 |
| 20260831130554 | 80 | 188 | 0.0 | 2.0 | 0.00 | 0.00 | 0.00 | 70 | 1016.6 |
| 20260831130135 | 80 | 0 | 0.0 | 2.0 | 0.00 | 0.00 | 0.00 | 71 | 1016.5 |
| 20260831125555 | 80 | 0 | 0.0 | 2.0 | 0.00 | 0.00 | 0.00 | 71 | 1016.4 |
| 20260831125056 | 79 | 0 | 0.0 | 2.0 | 0.00 | 0.00 | 0.00 | 71 | 1016.3 |
| 20260831124603 | 79 | 0 | 0.0 | 0.0 | 0.00 | 0.00 | 0.00 | 71 | 1016.2 |
| 20260831124055 | 79 | 0 | 0.0 | 0.0 | 0.00 | 0.00 | 0.00 | 71 | 1016.1 |
| 20260831123554 | 79 | 0 | 0.0 | 0.0 | 0.00 | 0.00 | 0.00 | 70 | 1016.1 |
| 20260831123109 | 79 | 0 | 0.0 | 0.0 | 0.00 | 0.00 | 0.00 | 70 | 1016.1 |
| 20260831122555 | 79 | 0 | 0.0 | 1.0 | 0.00 | 0.00 | 0.00 | 70 | 1016.0 |
| 20260831122055 | 79 | 0 | 0.0 | 2.0 | 0.00 | 0.00 | 0.00 | 70 | 1016.0 |
| 20260831121604 | 79 | 0 | 0.0 | 3.0 | 0.00 | 0.00 | 0.00 | 70 | 1015.9 |
| 20260831121055 | 79 | 192 | 0.0 | 3.0 | 0.00 | 0.00 | 0.00 | 69 | 1015.8 |
| 20260831120556 | 79 | 0 | 0.0 | 2.0 | 0.00 | 0.00 | 0.00 | 69 | 1015.7 |
| 20260831120147 | 79 | 0 | 0.0 | 3.0 | 0.00 | 0.00 | 0.00 | 69 | 1015.8 |
| 20260831115555 | 79 | 0 | 0.0 | 3.0 | 0.00 | 0.00 | 0.00 | 69 | 1015.6 |
| 20260831115055 | 79 | 0 | 1.0 | 3.0 | 0.00 | 0.00 | 0.00 | 68 | 1015.6 |
| 20260831114610 | 80 | 0 | 0.0 | 2.0 | 0.00 | 0.00 | 0.00 | 68 | 1015.5 |
| 20260831114055 | 80 | 0 | 0.0 | 3.0 | 0.00 | 0.00 | 0.00 | 68 | 1015.5 |
| 20260831113555 | 80 | 0 | 0.0 | 3.0 | 0.00 | 0.00 | 0.00 | 68 | 1015.4 |
| 20260831113102 | 80 | 0 | 1.0 | 4.0 | 0.00 | 0.00 | 0.00 | 67 | 1015.4 |
| 20260831112554 | 80 | 0 | 0.0 | 4.0 | 0.00 | 0.00 | 0.00 | 67 | 1015.3 |
| 20260831112054 | 80 | 0 | 0.0 | 1.0 | 0.00 | 0.00 | 0.00 | 66 | 1015.3 |
| 20260831111648 | 80 | 0 | 0.0 | 2.0 | 0.00 | 0.00 | 0.00 | 66 | 1015.3 |
| 20260831111055 | 80 | 0 | 0.0 | 3.0 | 0.00 | 0.00 | 0.00 | 66 | 1015.2 |
| 20260831110555 | 80 | 0 | 0.0 | 5.0 | 0.00 | 0.00 | 0.00 | 66 | 1015.2 |
| 20260831110110 | 81 | 194 | 1.0 | 5.0 | 0.00 | 0.00 | 0.00 | 66 | 1015.2 |
| 20260831105555 | 81 | 0 | 1.0 | 5.0 | 0.00 | 0.00 | 0.00 | 66 | 1015.1 |
| 20260831105055 | 81 | 192 | 1.0 | 5.0 | 0.00 | 0.00 | 0.00 | 66 | 1015.0 |
| 20260831104607 | 81 | 197 | 2.0 | 5.0 | 0.00 | 0.00 | 0.00 | 65 | 1015.0 |
| 20260831104054 | 81 | 180 | 1.0 | 3.0 | 0.00 | 0.00 | 0.00 | 65 | 1015.1 |
| 20260831103555 | 81 | 0 | 0.0 | 4.0 | 0.00 | 0.00 | 0.00 | 64 | 1015.2 |
| 20260831103104 | 81 | 0 | 0.0 | 4.0 | 0.00 | 0.00 | 0.00 | 64 | 1015.2 |
| 20260831102555 | 81 | 175 | 0.0 | 5.0 | 0.00 | 0.00 | 0.00 | 64 | 1015.2 |
| 20260831102056 | 81 | 0 | 1.0 | 5.0 | 0.00 | 0.00 | 0.00 | 64 | 1015.2 |
| 20260831101624 | 82 | 197 | 1.0 | 5.0 | 0.00 | 0.00 | 0.00 | 64 | 1015.2 |
| 20260831101056 | 82 | 207 | 1.0 | 5.0 | 0.00 | 0.00 | 0.00 | 63 | 1015.2 |
| 20260831100559 | 82 | 213 | 1.0 | 5.0 | 0.00 | 0.00 | 0.00 | 63 | 1015.1 |
| 20260831100104 | 82 | 211 | 2.0 | 6.0 | 0.00 | 0.00 | 0.00 | 63 | 1015.1 |
| 20260831095555 | 82 | 0 | 1.0 | 6.0 | 0.00 | 0.00 | 0.00 | 63 | 1015.0 |
| 20260831095055 | 82 | 182 | 1.0 | 8.0 | 0.00 | 0.00 | 0.00 | 63 | 1015.0 |
| 20260831094610 | 82 | 195 | 3.0 | 8.0 | 0.00 | 0.00 | 0.00 | 63 | 1014.9 |
| 20260831094058 | 82 | 196 | 1.0 | 5.0 | 0.00 | 0.00 | 0.00 | 63 | 1014.9 |
| 20260831093555 | 82 | 190 | 1.0 | 7.0 | 0.00 | 0.00 | 0.00 | 63 | 1015.0 |
| 20260831093108 | 82 | 196 | 1.0 | 7.0 | 0.00 | 0.00 | 0.00 | 63 | 1014.9 |
| 20260831092555 | 82 | 194 | 2.0 | 7.0 | 0.00 | 0.00 | 0.00 | 63 | 1014.9 |
| 20260831092054 | 82 | 0 | 2.0 | 7.0 | 0.00 | 0.00 | 0.00 | 63 | 1014.8 |
| 20260831091606 | 82 | 188 | 1.0 | 6.0 | 0.00 | 0.00 | 0.00 | 63 | 1014.7 |
| 20260831091059 | 82 | 185 | 2.0 | 6.0 | 0.00 | 0.00 | 0.00 | 63 | 1014.6 |
| 20260831090557 | 82 | 210 | 1.0 | 8.0 | 0.00 | 0.00 | 0.00 | 62 | 1014.6 |
| 20260831090124 | 82 | 171 | 1.0 | 8.0 | 0.00 | 0.00 | 0.00 | 61 | 1014.7 |
| 20260831085555 | 82 | 202 | 1.0 | 6.0 | 0.00 | 0.00 | 0.00 | 61 | 1014.8 |
| 20260831085056 | 82 | 182 | 1.0 | 4.0 | 0.00 | 0.00 | 0.00 | 60 | 1014.7 |
| 20260831084606 | 82 | 203 | 1.0 | 7.0 | 0.00 | 0.00 | 0.00 | 60 | 1014.7 |
| 20260831084055 | 82 | 196 | 2.0 | 7.0 | 0.00 | 0.00 | 0.00 | 59 | 1014.7 |
| 20260831083555 | 82 | 188 | 2.0 | 5.0 | 0.00 | 0.00 | 0.00 | 58 | 1014.8 |
| 20260831083104 | 82 | 238 | 1.0 | 6.0 | 0.00 | 0.00 | 0.00 | 58 | 1014.8 |
| 20260831082558 | 82 | 360 | 1.0 | 6.0 | 0.00 | 0.00 | 0.00 | 57 | 1014.9 |
| 20260831082055 | 82 | 360 | 1.0 | 6.0 | 0.00 | 0.00 | 0.00 | 57 | 1014.9 |
| 20260831081603 | 82 | 360 | 1.0 | 5.0 | 0.00 | 0.00 | 0.00 | 56 | 1014.9 |
| 20260831081056 | 83 | 0 | 1.0 | 6.0 | 0.00 | 0.00 | 0.00 | 56 | 1014.9 |
| 20260831080557 | 82 | 360 | 2.0 | 6.0 | 0.00 | 0.00 | 0.00 | 56 | 1014.8 |
| 20260831080111 | 83 | 360 | 1.0 | 6.0 | 0.00 | 0.00 | 0.00 | 56 | 1014.8 |
| 20260831075555 | 83 | 188 | 2.0 | 6.0 | 0.00 | 0.00 | 0.00 | 56 | 1014.7 |
| 20260831075059 | 83 | 360 | 2.0 | 6.0 | 0.00 | 0.00 | 0.00 | 56 | 1014.6 |
| 20260831074608 | 83 | 360 | 2.0 | 9.0 | 0.00 | 0.00 | 0.00 | 56 | 1014.6 |
| 20260831074057 | 83 | 360 | 2.0 | 9.0 | 0.00 | 0.00 | 0.00 | 56 | 1014.6 |
| 20260831073600 | 82 | 360 | 3.0 | 9.0 | 0.00 | 0.00 | 0.00 | 56 | 1014.6 |
| 20260831073118 | 82 | 206 | 2.0 | 5.0 | 0.00 | 0.00 | 0.00 | 56 | 1014.5 |
| 20260831072559 | 83 | 172 | 0.0 | 4.0 | 0.00 | 0.00 | 0.00 | 56 | 1014.4 |
| 20260831072058 | 83 | 0 | 0.0 | 3.0 | 0.00 | 0.00 | 0.00 | 56 | 1014.4 |
| 20260831071609 | 83 | 0 | 0.0 | 3.0 | 0.00 | 0.00 | 0.00 | 56 | 1014.4 |
| 20260831071057 | 83 | 0 | 0.0 | 2.0 | 0.00 | 0.00 | 0.00 | 56 | 1014.5 |
| 20260831070556 | 83 | 0 | 0.0 | 2.0 | 0.00 | 0.00 | 0.00 | 56 | 1014.4 |
| 20260831070138 | 83 | 0 | 0.0 | 2.0 | 0.00 | 0.00 | 0.00 | 56 | 1014.5 |
| 20260831065557 | 83 | 0 | 0.0 | 4.0 | 0.00 | 0.00 | 0.00 | 56 | 1014.4 |
| 20260831065055 | 83 | 0 | 0.0 | 4.0 | 0.00 | 0.00 | 0.00 | 56 | 1014.5 |
| 20260831064608 | 84 | 0 | 0.0 | 4.0 | 0.00 | 0.00 | 0.00 | 56 | 1014.4 |
| 20260831064058 | 84 | 0 | 0.0 | 2.0 | 0.00 | 0.00 | 0.00 | 56 | 1014.5 |
| 20260831063556 | 84 | 0 | 0.0 | 2.0 | 0.00 | 0.00 | 0.00 | 56 | 1014.6 |
| 20260831063110 | 84 | 0 | 0.0 | 2.0 | 0.00 | 0.00 | 0.00 | 56 | 1014.5 |
| 20260831062556 | 84 | 0 | 0.0 | 4.0 | 0.00 | 0.00 | 0.00 | 56 | 1014.5 |
| 20260831062056 | 84 | 0 | 0.0 | 4.0 | 0.00 | 0.00 | 0.00 | 55 | 1014.5 |
| 20260831061611 | 84 | 0 | 0.0 | 2.0 | 0.00 | 0.00 | 0.00 | 55 | 1014.5 |
| 20260831061055 | 84 | 164 | 0.0 | 4.0 | 0.00 | 0.00 | 0.00 | 55 | 1014.6 |
| 20260831060556 | 84 | 0 | 0.0 | 4.0 | 0.00 | 0.00 | 0.00 | 55 | 1014.5 |
| 20260831060112 | 84 | 0 | 0.0 | 3.0 | 0.00 | 0.00 | 0.00 | 55 | 1014.5 |
| 20260831055556 | 84 | 164 | 0.0 | 4.0 | 0.00 | 0.00 | 0.00 | 55 | 1014.5 |
| 20260831055055 | 84 | 167 | 0.0 | 4.0 | 0.00 | 0.00 | 0.00 | 54 | 1014.5 |
| 20260831054606 | 84 | 0 | 0.0 | 2.0 | 0.00 | 0.00 | 0.00 | 54 | 1014.4 |
| 20260831054055 | 85 | 0 | 0.0 | 2.0 | 0.00 | 0.00 | 0.00 | 54 | 1014.4 |
| 20260831053556 | 85 | 0 | 0.0 | 1.0 | 0.00 | 0.00 | 0.00 | 54 | 1014.5 |
| 20260831053111 | 85 | 0 | 0.0 | 1.0 | 0.00 | 0.00 | 0.00 | 53 | 1014.4 |
| 20260831052556 | 85 | 169 | 0.0 | 4.0 | 0.00 | 0.00 | 0.00 | 53 | 1014.5 |
| 20260831052055 | 85 | 0 | 0.0 | 4.0 | 0.00 | 0.00 | 0.00 | 53 | 1014.4 |
| 20260831051621 | 85 | 0 | 0.0 | 2.0 | 0.00 | 0.00 | 0.00 | 53 | 1014.4 |
| 20260831051055 | 85 | 0 | 0.0 | 2.0 | 0.00 | 0.00 | 0.00 | 52 | 1014.4 |
| 20260831050605 | 86 | 0 | 0.0 | 2.0 | 0.00 | 0.00 | 0.00 | 52 | 1014.3 |
| 20260831050115 | 86 | 176 | 0.0 | 2.0 | 0.00 | 0.00 | 0.00 | 52 | 1014.3 |
| 20260831045555 | 86 | 0 | 0.0 | 2.0 | 0.00 | 0.00 | 0.00 | 51 | 1014.2 |
| 20260831045056 | 86 | 0 | 0.0 | 2.0 | 0.00 | 0.00 | 0.00 | 51 | 1014.2 |
| 20260831044606 | 86 | 0 | 0.0 | 1.0 | 0.00 | 0.00 | 0.00 | 50 | 1014.3 |
| 20260831044055 | 86 | 0 | 0.0 | 1.0 | 0.00 | 0.00 | 0.00 | 50 | 1014.4 |
| 20260831043555 | 86 | 0 | 0.0 | 1.0 | 0.00 | 0.00 | 0.00 | 50 | 1014.5 |
| 20260831043104 | 87 | 0 | 0.0 | 2.0 | 0.00 | 0.00 | 0.00 | 50 | 1014.6 |
| 20260831042556 | 87 | 0 | 0.0 | 2.0 | 0.00 | 0.00 | 0.00 | 49 | 1014.5 |
| 20260831042055 | 87 | 0 | 0.0 | 2.0 | 0.00 | 0.00 | 0.00 | 49 | 1014.4 |
| 20260831041607 | 87 | 0 | 0.0 | 2.0 | 0.00 | 0.00 | 0.00 | 49 | 1014.4 |
| 20260831041056 | 87 | 0 | 0.0 | 0.0 | 0.00 | 0.00 | 0.00 | 49 | 1014.3 |
| 20260831040556 | 87 | 0 | 0.0 | 1.0 | 0.00 | 0.00 | 0.00 | 49 | 1014.3 |
| 20260831040106 | 87 | 0 | 0.0 | 2.0 | 0.00 | 0.00 | 0.00 | 48 | 1014.2 |
| 20260831035555 | 88 | 0 | 0.0 | 2.0 | 0.00 | 0.00 | 0.00 | 48 | 1014.3 |
| 20260831035055 | 88 | 0 | 0.0 | 2.0 | 0.00 | 0.00 | 0.00 | 48 | 1014.3 |
| 20260831034600 | 88 | 0 | 0.0 | 2.0 | 0.00 | 0.00 | 0.00 | 47 | 1014.3 |
| 20260831034056 | 88 | 180 | 0.0 | 2.0 | 0.00 | 0.00 | 0.00 | 47 | 1014.3 |
| 20260831033555 | 88 | 180 | 0.0 | 0.0 | 0.00 | 0.00 | 0.00 | 47 | 1014.3 |
| 20260831033109 | 88 | 0 | 0.0 | 0.0 | 0.00 | 0.00 | 0.00 | 47 | 1014.2 |
| 20260831032555 | 88 | 0 | 0.0 | 0.0 | 0.00 | 0.00 | 0.00 | 46 | 1014.3 |
| 20260831032053 | 88 | 0 | 0.0 | 2.0 | 0.00 | 0.00 | 0.00 | 46 | 1014.3 |
| 20260831031606 | 88 | 0 | 0.0 | 3.0 | 0.00 | 0.00 | 0.00 | 45 | 1014.2 |
| 20260831031056 | 89 | 0 | 1.0 | 3.0 | 0.00 | 0.00 | 0.00 | 45 | 1014.1 |
| 20260831030554 | 89 | 0 | 0.0 | 0.0 | 0.00 | 0.00 | 0.00 | 44 | 1014.0 |
| 20260831025555 | 89 | 0 | 0.0 | 1.0 | 0.00 | 0.00 | 0.00 | 44 | 1014.0 |
| 20260831025056 | 89 | 0 | 0.0 | 2.0 | 0.00 | 0.00 | 0.00 | 43 | 1014.0 |
| 20260831024619 | 89 | 0 | 0.0 | 2.0 | 0.00 | 0.00 | 0.00 | 43 | 1014.0 |
| 20260831024056 | 89 | 0 | 0.0 | 2.0 | 0.00 | 0.00 | 0.00 | 42 | 1013.9 |
| 20260831023555 | 90 | 0 | 0.0 | 1.0 | 0.00 | 0.00 | 0.00 | 42 | 1013.7 |
| 20260831023110 | 90 | 0 | 0.0 | 1.0 | 0.00 | 0.00 | 0.00 | 41 | 1013.8 |
| 20260831022555 | 90 | 0 | 0.0 | 1.0 | 0.00 | 0.00 | 0.00 | 41 | 1013.7 |
| 20260831022055 | 90 | 0 | 0.0 | 1.0 | 0.00 | 0.00 | 0.00 | 41 | 1013.6 |
| 20260831021605 | 90 | 0 | 0.0 | 1.0 | 0.00 | 0.00 | 0.00 | 41 | 1013.5 |
| 20260831021055 | 91 | 0 | 0.0 | 1.0 | 0.00 | 0.00 | 0.00 | 40 | 1013.5 |
| 20260831020558 | 91 | 0 | 0.0 | 1.0 | 0.00 | 0.00 | 0.00 | 40 | 1013.3 |
| 20260831020112 | 91 | 0 | 0.0 | 1.0 | 0.00 | 0.00 | 0.00 | 39 | 1013.2 |
| 20260831015555 | 92 | 0 | 0.0 | 1.0 | 0.00 | 0.00 | 0.00 | 39 | 1013.2 |
| 20260831015055 | 92 | 0 | 0.0 | 1.0 | 0.00 | 0.00 | 0.00 | 39 | 1013.2 |
| 20260831014612 | 92 | 0 | 0.0 | 1.0 | 0.00 | 0.00 | 0.00 | 38 | 1013.1 |
| 20260831014055 | 92 | 0 | 0.0 | 1.0 | 0.00 | 0.00 | 0.00 | 38 | 1013.0 |
| 20260831013555 | 93 | 0 | 0.0 | 1.0 | 0.00 | 0.00 | 0.00 | 38 | 1013.0 |
| 20260831013111 | 93 | 0 | 0.0 | 2.0 | 0.00 | 0.00 | 0.00 | 37 | 1013.0 |
| 20260831012556 | 94 | 0 | 0.0 | 2.0 | 0.00 | 0.00 | 0.00 | 36 | 1013.0 |
| 20260831012058 | 94 | 0 | 0.0 | 4.0 | 0.00 | 0.00 | 0.00 | 36 | 1013.0 |
| 20260831011604 | 94 | 0 | 0.0 | 4.0 | 0.00 | 0.00 | 0.00 | 36 | 1012.9 |
| 20260831011055 | 95 | 0 | 1.0 | 4.0 | 0.00 | 0.00 | 0.00 | 35 | 1012.9 |
| 20260831010555 | 96 | 171 | 0.0 | 4.0 | 0.00 | 0.00 | 0.00 | 34 | 1012.8 |
| 20260831010134 | 96 | 0 | 0.0 | 1.0 | 0.00 | 0.00 | 0.00 | 33 | 1012.8 |
| 20260831005555 | 97 | 0 | 0.0 | 2.0 | 0.00 | 0.00 | 0.00 | 32 | 1012.8 |
| 20260831005056 | 97 | 0 | 0.0 | 2.0 | 0.00 | 0.00 | 0.00 | 32 | 1012.8 |
| 20260831004611 | 98 | 0 | 0.0 | 3.0 | 0.00 | 0.00 | 0.00 | 31 | 1012.8 |
| 20260831004100 | 98 | 169 | 0.0 | 4.0 | 0.00 | 0.00 | 0.00 | 31 | 1012.8 |
| 20260831003557 | 98 | 0 | 0.0 | 4.0 | 0.00 | 0.00 | 0.00 | 31 | 1012.8 |
| 20260831003121 | 98 | 0 | 0.0 | 4.0 | 0.00 | 0.00 | 0.00 | 31 | 1012.8 |
| 20260831002555 | 99 | 0 | 1.0 | 5.0 | 0.00 | 0.00 | 0.00 | 31 | 1012.8 |
| 20260831002055 | 99 | 203 | 1.0 | 5.0 | 0.00 | 0.00 | 0.00 | 30 | 1012.9 |
| 20260831001609 | 99 | 168 | 0.0 | 4.0 | 0.00 | 0.00 | 0.00 | 30 | 1012.8 |
| 20260831001056 | 99 | 0 | 1.0 | 3.0 | 0.00 | 0.00 | 0.00 | 30 | 1012.7 |
| 20260831000556 | 100 | 225 | 1.0 | 3.0 | 0.00 | 0.00 | 0.00 | 30 | 1012.7 |
| 20260831000109 | 100 | 135 | 1.0 | 5.0 | 0.00 | 0.00 | 0.00 | 29 | 1012.8 |
| 20260830235555 | 100 | 207 | 1.0 | 5.0 | 0.00 | 0.00 | 0.00 | 29 | 1012.9 |
| 20260830235055 | 100 | 229 | 1.0 | 5.0 | 0.00 | 0.00 | 0.00 | 30 | 1012.9 |
| 20260830234607 | 101 | 212 | 2.0 | 8.0 | 0.00 | 0.00 | 0.00 | 30 | 1012.8 |
| 20260830234055 | 101 | 200 | 1.0 | 8.0 | 0.00 | 0.00 | 0.00 | 29 | 1012.7 |
| 20260830233558 | 101 | 0 | 1.0 | 7.0 | 0.00 | 0.00 | 0.00 | 29 | 1012.7 |
| 20260830233101 | 101 | 117 | 2.0 | 7.0 | 0.00 | 0.00 | 0.00 | 29 | 1012.8 |
| 20260830232558 | 101 | 49 | 1.0 | 7.0 | 0.00 | 0.00 | 0.00 | 29 | 1012.7 |